Location: Unspecified
(0.0000°N, 0.0000°E)
Time: 11:02:19
(UTC+00:00)

CBERS-1 - Pass Details

Date: 09 June 2023
Orbit: 767 x 776 km, 98.8° (Epoch: 21 September)

Event Time Altitude Azimuth Distance (km) Brightness Sun altitude
Rises 03:04:45 0° 17° (NNE) 3,238 7.8 -39.4°
Reaches altitude 10° 03:07:03 10° 19° (NNE) 2,314 6.9 -38.9°
Enters shadow 03:08:12 17° 22° (NNE) 1,867 6.4 -38.7°
